| time (UTC) | temp F | wind direction | speed MPH | gust MPH | rain 1hr in | rain 24hr in | rain mn in | humidity % | barometer mb |
| 20260906044022 | 66 | 18 | 2.0 | 7.0 | 0.00 | 0.00 | 0.00 | 92 | 1017.5 |
| 20260906043517 | 66 | 5 | 3.0 | 6.0 | 0.00 | 0.00 | 0.00 | 91 | 1017.3 |
| 20260906043037 | 66 | 336 | 2.0 | 4.0 | 0.00 | 0.00 | 0.00 | 91 | 1017.2 |
| 20260906042518 | 66 | 0 | 0.0 | 3.0 | 0.00 | 0.00 | 0.00 | 91 | 1017.1 |
| 20260906042017 | 66 | 0 | 0.0 | 3.0 | 0.00 | 0.00 | 0.00 | 91 | 1017.1 |
| 20260906041544 | 66 | 42 | 0.0 | 3.0 | 0.00 | 0.00 | 0.00 | 91 | 1017.0 |
| 20260906041018 | 66 | 49 | 0.0 | 3.0 | 0.00 | 0.00 | 0.00 | 91 | 1017.0 |
| 20260906040515 | 67 | 14 | 1.0 | 5.0 | 0.00 | 0.00 | 0.00 | 91 | 1017.0 |
| 20260906040046 | 67 | 0 | 0.0 | 5.0 | 0.00 | 0.00 | 0.00 | 91 | 1017.0 |
| 20260906035522 | 67 | 337 | 1.0 | 5.0 | 0.00 | 0.00 | 0.00 | 90 | 1017.0 |
| 20260906035018 | 67 | 20 | 0.0 | 3.0 | 0.00 | 0.00 | 0.00 | 90 | 1017.2 |
| 20260906034538 | 67 | 352 | 0.0 | 3.0 | 0.00 | 0.00 | 0.00 | 90 | 1017.2 |
| 20260906034019 | 67 | 63 | 0.0 | 4.0 | 0.00 | 0.00 | 0.00 | 89 | 1017.2 |
| 20260906033518 | 67 | 30 | 1.0 | 4.0 | 0.00 | 0.00 | 0.00 | 89 | 1017.1 |
| 20260906033037 | 67 | 28 | 1.0 | 3.0 | 0.00 | 0.00 | 0.00 | 89 | 1017.1 |
| 20260906032516 | 67 | 41 | 0.0 | 4.0 | 0.00 | 0.00 | 0.00 | 89 | 1017.1 |
| 20260906032018 | 67 | 30 | 1.0 | 6.0 | 0.00 | 0.00 | 0.00 | 89 | 1017.0 |
| 20260906031539 | 67 | 18 | 1.0 | 6.0 | 0.00 | 0.00 | 0.00 | 88 | 1017.0 |
| 20260906031017 | 67 | 0 | 0.0 | 3.0 | 0.00 | 0.00 | 0.00 | 88 | 1017.1 |
| 20260906030516 | 67 | 9 | 1.0 | 4.0 | 0.00 | 0.00 | 0.00 | 88 | 1017.1 |
| 20260906030037 | 67 | 5 | 1.0 | 5.0 | 0.00 | 0.00 | 0.00 | 87 | 1017.1 |
| 20260906025521 | 67 | 24 | 1.0 | 6.0 | 0.00 | 0.00 | 0.00 | 87 | 1017.1 |
| 20260906025022 | 67 | 352 | 2.0 | 6.0 | 0.00 | 0.00 | 0.00 | 87 | 1017.2 |
| 20260906024536 | 67 | 10 | 2.0 | 6.0 | 0.00 | 0.00 | 0.00 | 87 | 1017.0 |
| 20260906024019 | 68 | 336 | 2.0 | 7.0 | 0.00 | 0.00 | 0.00 | 87 | 1016.8 |
| 20260906023520 | 68 | 19 | 2.0 | 7.0 | 0.00 | 0.00 | 0.00 | 87 | 1016.9 |
| 20260906023044 | 68 | 17 | 2.0 | 7.0 | 0.00 | 0.00 | 0.00 | 86 | 1016.8 |
| 20260906022521 | 68 | 28 | 2.0 | 7.0 | 0.00 | 0.00 | 0.00 | 86 | 1016.8 |
| 20260906022023 | 68 | 28 | 2.0 | 5.0 | 0.00 | 0.00 | 0.00 | 85 | 1016.7 |
| 20260906021540 | 68 | 38 | 1.0 | 9.0 | 0.00 | 0.00 | 0.00 | 85 | 1016.8 |
| 20260906021019 | 68 | 39 | 1.0 | 9.0 | 0.00 | 0.00 | 0.00 | 85 | 1016.8 |
| 20260906020518 | 69 | 38 | 1.0 | 6.0 | 0.00 | 0.00 | 0.00 | 85 | 1016.8 |
| 20260906020039 | 69 | 34 | 1.0 | 5.0 | 0.00 | 0.00 | 0.00 | 85 | 1016.8 |
| 20260906015518 | 69 | 35 | 2.0 | 5.0 | 0.00 | 0.00 | 0.00 | 85 | 1016.8 |
| 20260906015016 | 69 | 24 | 2.0 | 5.0 | 0.00 | 0.00 | 0.00 | 85 | 1016.7 |
| 20260906014539 | 69 | 56 | 1.0 | 5.0 | 0.00 | 0.00 | 0.00 | 85 | 1017.0 |
| 20260906014016 | 69 | 355 | 1.0 | 8.0 | 0.00 | 0.00 | 0.00 | 85 | 1016.8 |
| 20260906013518 | 69 | 360 | 2.0 | 8.0 | 0.00 | 0.00 | 0.00 | 85 | 1016.8 |
| 20260906013034 | 69 | 346 | 2.0 | 7.0 | 0.00 | 0.00 | 0.00 | 85 | 1016.7 |
| 20260906012515 | 69 | 342 | 2.0 | 7.0 | 0.00 | 0.00 | 0.00 | 85 | 1016.8 |
| 20260906012016 | 69 | 15 | 1.0 | 8.0 | 0.00 | 0.00 | 0.00 | 84 | 1016.7 |
| 20260906011538 | 69 | 5 | 1.0 | 8.0 | 0.00 | 0.00 | 0.00 | 85 | 1016.7 |
| 20260906011017 | 69 | 42 | 3.0 | 9.0 | 0.00 | 0.00 | 0.00 | 85 | 1016.8 |
| 20260906010518 | 69 | 360 | 4.0 | 9.0 | 0.00 | 0.00 | 0.00 | 84 | 1016.8 |
| 20260906010037 | 69 | 329 | 2.0 | 5.0 | 0.00 | 0.00 | 0.00 | 85 | 1016.7 |
| 20260906005516 | 69 | 15 | 1.0 | 8.0 | 0.00 | 0.00 | 0.00 | 84 | 1016.7 |
| 20260906005020 | 69 | 26 | 2.0 | 8.0 | 0.00 | 0.00 | 0.00 | 84 | 1016.7 |
| 20260906004536 | 70 | 15 | 2.0 | 7.0 | 0.00 | 0.00 | 0.00 | 86 | 1016.5 |
| 20260906004021 | 70 | 46 | 2.0 | 7.0 | 0.00 | 0.00 | 0.00 | 86 | 1016.6 |
| 20260906003516 | 70 | 11 | 0.0 | 4.0 | 0.00 | 0.00 | 0.00 | 86 | 1016.5 |
| 20260906003038 | 70 | 0 | 1.0 | 4.0 | 0.00 | 0.00 | 0.00 | 86 | 1016.5 |
| 20260906002518 | 70 | 360 | 1.0 | 6.0 | 0.00 | 0.00 | 0.00 | 86 | 1016.5 |
| 20260906002016 | 70 | 0 | 1.0 | 9.0 | 0.00 | 0.00 | 0.00 | 86 | 1016.5 |
| 20260906001540 | 70 | 352 | 3.0 | 9.0 | 0.00 | 0.00 | 0.00 | 86 | 1016.7 |
| 20260906001019 | 70 | 22 | 1.0 | 5.0 | 0.00 | 0.00 | 0.00 | 86 | 1016.6 |
| 20260906000523 | 70 | 309 | 1.0 | 5.0 | 0.00 | 0.00 | 0.00 | 86 | 1016.5 |
| 20260906000039 | 70 | 0 | 1.0 | 8.0 | 0.00 | 0.00 | 0.00 | 86 | 1016.5 |
| 20260905235519 | 70 | 43 | 2.0 | 8.0 | 0.00 | 0.00 | 0.00 | 86 | 1016.6 |
| 20260905235016 | 70 | 360 | 3.0 | 8.0 | 0.00 | 0.00 | 0.00 | 87 | 1016.7 |
| 20260905234535 | 70 | 24 | 2.0 | 8.0 | 0.00 | 0.00 | 0.00 | 87 | 1016.6 |
| 20260905234021 | 70 | 44 | 1.0 | 9.0 | 0.00 | 0.00 | 0.00 | 87 | 1016.6 |
| 20260905233516 | 70 | 48 | 2.0 | 9.0 | 0.00 | 0.00 | 0.00 | 87 | 1016.7 |
| 20260905233037 | 70 | 38 | 2.0 | 10.0 | 0.00 | 0.00 | 0.00 | 87 | 1016.7 |
| 20260905232515 | 70 | 80 | 3.0 | 10.0 | 0.00 | 0.00 | 0.00 | 87 | 1016.6 |
| 20260905232018 | 70 | 337 | 2.0 | 9.0 | 0.00 | 0.00 | 0.00 | 88 | 1016.7 |
| 20260905231549 | 70 | 19 | 0.0 | 10.0 | 0.00 | 0.00 | 0.00 | 88 | 1016.7 |
| 20260905231019 | 70 | 339 | 2.0 | 10.0 | 0.00 | 0.00 | 0.00 | 88 | 1016.7 |
| 20260905230524 | 70 | 0 | 3.0 | 10.0 | 0.00 | 0.00 | 0.00 | 88 | 1016.6 |
| 20260905230045 | 70 | 14 | 3.0 | 9.0 | 0.00 | 0.00 | 0.00 | 88 | 1016.7 |
| 20260905225518 | 70 | 63 | 3.0 | 9.0 | 0.00 | 0.00 | 0.00 | 88 | 1016.7 |
| 20260905225020 | 71 | 22 | 2.0 | 9.0 | 0.00 | 0.00 | 0.00 | 87 | 1016.6 |
| 20260905224547 | 71 | 352 | 4.0 | 9.0 | 0.00 | 0.00 | 0.00 | 87 | 1016.8 |
| 20260905224019 | 71 | 335 | 2.0 | 9.0 | 0.00 | 0.00 | 0.00 | 86 | 1016.7 |
| 20260905223522 | 71 | 52 | 2.0 | 9.0 | 0.00 | 0.00 | 0.00 | 86 | 1016.6 |
| 20260905223039 | 71 | 101 | 2.0 | 10.0 | 0.00 | 0.00 | 0.00 | 86 | 1016.5 |
| 20260905222527 | 71 | 53 | 3.0 | 10.0 | 0.00 | 0.00 | 0.00 | 86 | 1016.4 |
| 20260905222017 | 71 | 331 | 2.0 | 8.0 | 0.00 | 0.00 | 0.00 | 86 | 1016.3 |
| 20260905221541 | 72 | 339 | 2.0 | 9.0 | 0.00 | 0.00 | 0.00 | 86 | 1016.1 |
| 20260905221018 | 71 | 5 | 2.0 | 10.0 | 0.00 | 0.00 | 0.00 | 86 | 1016.2 |
| 20260905220522 | 72 | 50 | 2.0 | 10.0 | 0.00 | 0.00 | 0.00 | 85 | 1016.0 |
| 20260905220035 | 72 | 17 | 4.0 | 10.0 | 0.00 | 0.00 | 0.00 | 85 | 1016.1 |
| 20260905215516 | 72 | 13 | 3.0 | 12.0 | 0.00 | 0.00 | 0.00 | 85 | 1016.0 |
| 20260905215018 | 72 | 360 | 3.0 | 12.0 | 0.00 | 0.00 | 0.00 | 85 | 1016.0 |
| 20260905214540 | 72 | 34 | 4.0 | 13.0 | 0.00 | 0.00 | 0.00 | 84 | 1015.9 |
| 20260905214018 | 72 | 40 | 5.0 | 13.0 | 0.00 | 0.00 | 0.00 | 84 | 1015.9 |
| 20260905213520 | 72 | 15 | 3.0 | 10.0 | 0.00 | 0.00 | 0.00 | 85 | 1016.0 |
| 20260905213039 | 72 | 24 | 4.0 | 10.0 | 0.00 | 0.00 | 0.00 | 85 | 1015.8 |
| 20260905212518 | 72 | 274 | 4.0 | 10.0 | 0.00 | 0.00 | 0.00 | 84 | 1015.8 |
| 20260905212022 | 72 | 43 | 3.0 | 10.0 | 0.00 | 0.00 | 0.00 | 84 | 1015.9 |
| 20260905211535 | 73 | 69 | 2.0 | 10.0 | 0.00 | 0.00 | 0.00 | 84 | 1015.9 |
| 20260905211019 | 73 | 34 | 3.0 | 11.0 | 0.00 | 0.00 | 0.00 | 83 | 1015.8 |
| 20260905210519 | 73 | 101 | 3.0 | 12.0 | 0.00 | 0.00 | 0.00 | 84 | 1015.8 |
| 20260905210038 | 73 | 51 | 5.0 | 12.0 | 0.00 | 0.00 | 0.00 | 83 | 1015.7 |
| 20260905205518 | 74 | 344 | 3.0 | 11.0 | 0.00 | 0.00 | 0.00 | 83 | 1015.8 |
| 20260905205021 | 74 | 346 | 4.0 | 12.0 | 0.00 | 0.00 | 0.00 | 82 | 1015.8 |
| 20260905204535 | 75 | 63 | 3.0 | 12.0 | 0.00 | 0.00 | 0.00 | 81 | 1015.8 |
| 20260905204017 | 75 | 26 | 5.0 | 12.0 | 0.00 | 0.00 | 0.00 | 80 | 1015.7 |
| 20260905203519 | 76 | 24 | 6.0 | 11.0 | 0.00 | 0.00 | 0.00 | 80 | 1015.7 |
| 20260905203038 | 76 | 99 | 3.0 | 13.0 | 0.00 | 0.00 | 0.00 | 80 | 1015.6 |
| 20260905202518 | 76 | 46 | 4.0 | 13.0 | 0.00 | 0.00 | 0.00 | 80 | 1015.7 |
| 20260905202016 | 76 | 328 | 5.0 | 12.0 | 0.00 | 0.00 | 0.00 | 81 | 1015.7 |
| 20260905201539 | 76 | 0 | 2.0 | 6.0 | 0.00 | 0.00 | 0.00 | 80 | 1015.7 |
| 20260905201017 | 76 | 105 | 2.0 | 9.0 | 0.00 | 0.00 | 0.00 | 80 | 1015.7 |
| 20260905200520 | 76 | 92 | 3.0 | 13.0 | 0.00 | 0.00 | 0.00 | 80 | 1015.7 |
| 20260905200037 | 76 | 310 | 2.0 | 13.0 | 0.00 | 0.00 | 0.00 | 81 | 1015.6 |
| 20260905195519 | 76 | 0 | 2.0 | 9.0 | 0.00 | 0.00 | 0.00 | 81 | 1015.7 |
| 20260905195017 | 76 | 83 | 3.0 | 11.0 | 0.00 | 0.00 | 0.00 | 81 | 1015.8 |
| 20260905194537 | 76 | 39 | 2.0 | 13.0 | 0.00 | 0.00 | 0.00 | 81 | 1015.8 |
| 20260905194019 | 76 | 51 | 5.0 | 13.0 | 0.00 | 0.00 | 0.00 | 81 | 1015.8 |
| 20260905193519 | 76 | 306 | 3.0 | 12.0 | 0.00 | 0.00 | 0.00 | 81 | 1015.8 |
| 20260905193033 | 76 | 331 | 5.0 | 12.0 | 0.00 | 0.00 | 0.00 | 82 | 1015.8 |
| 20260905192525 | 76 | 352 | 3.0 | 10.0 | 0.00 | 0.00 | 0.00 | 81 | 1015.7 |
| 20260905192018 | 76 | 5 | 1.0 | 8.0 | 0.00 | 0.00 | 0.00 | 82 | 1015.8 |
| 20260905191538 | 76 | 323 | 4.0 | 9.0 | 0.00 | 0.00 | 0.00 | 82 | 1015.7 |
| 20260905191016 | 76 | 109 | 3.0 | 9.0 | 0.00 | 0.00 | 0.00 | 83 | 1015.7 |
| 20260905190522 | 76 | 55 | 3.0 | 11.0 | 0.00 | 0.00 | 0.00 | 82 | 1015.7 |
| 20260905190056 | 77 | 22 | 3.0 | 13.0 | 0.00 | 0.00 | 0.00 | 81 | 1015.7 |
| 20260905185521 | 77 | 13 | 4.0 | 13.0 | 0.00 | 0.00 | 0.00 | 81 | 1015.8 |
| 20260905185019 | 77 | 17 | 3.0 | 13.0 | 0.00 | 0.00 | 0.00 | 81 | 1015.7 |
| 20260905184548 | 77 | 36 | 1.0 | 7.0 | 0.00 | 0.00 | 0.00 | 83 | 1015.7 |
| 20260905184018 | 77 | 59 | 2.0 | 9.0 | 0.00 | 0.00 | 0.00 | 82 | 1015.7 |
| 20260905183523 | 77 | 26 | 1.0 | 9.0 | 0.00 | 0.00 | 0.00 | 82 | 1015.7 |
| 20260905183036 | 77 | 87 | 2.0 | 9.0 | 0.00 | 0.00 | 0.00 | 82 | 1015.6 |
| 20260905182518 | 77 | 55 | 3.0 | 9.0 | 0.00 | 0.00 | 0.00 | 81 | 1015.6 |
| 20260905182018 | 77 | 51 | 2.0 | 10.0 | 0.00 | 0.00 | 0.00 | 81 | 1015.7 |
| 20260905181543 | 78 | 38 | 4.0 | 11.0 | 0.00 | 0.00 | 0.00 | 80 | 1015.6 |
| 20260905181017 | 77 | 30 | 2.0 | 11.0 | 0.00 | 0.00 | 0.00 | 81 | 1015.7 |
| 20260905180518 | 77 | 29 | 6.0 | 11.0 | 0.00 | 0.00 | 0.00 | 80 | 1015.7 |
| 20260905180036 | 77 | 20 | 3.0 | 9.0 | 0.00 | 0.00 | 0.00 | 81 | 1015.7 |
| 20260905175521 | 78 | 9 | 3.0 | 9.0 | 0.00 | 0.00 | 0.00 | 80 | 1015.6 |
| 20260905175017 | 78 | 34 | 1.0 | 10.0 | 0.00 | 0.00 | 0.00 | 81 | 1015.6 |
| 20260905174544 | 77 | 351 | 3.0 | 10.0 | 0.00 | 0.00 | 0.00 | 80 | 1015.5 |
| 20260905174018 | 78 | 348 | 4.0 | 9.0 | 0.00 | 0.00 | 0.00 | 81 | 1015.6 |
| 20260905173519 | 78 | 44 | 3.0 | 9.0 | 0.00 | 0.00 | 0.00 | 80 | 1015.7 |
| 20260905173040 | 77 | 34 | 1.0 | 7.0 | 0.00 | 0.00 | 0.00 | 82 | 1015.6 |
| 20260905172516 | 77 | 347 | 1.0 | 5.0 | 0.00 | 0.00 | 0.00 | 82 | 1015.7 |
| 20260905172018 | 77 | 39 | 2.0 | 5.0 | 0.00 | 0.00 | 0.00 | 81 | 1015.6 |
| 20260905171539 | 77 | 349 | 1.0 | 4.0 | 0.00 | 0.00 | 0.00 | 81 | 1015.6 |
| 20260905171020 | 77 | 10 | 1.0 | 6.0 | 0.00 | 0.00 | 0.00 | 81 | 1015.7 |
| 20260905170520 | 77 | 44 | 1.0 | 6.0 | 0.00 | 0.00 | 0.00 | 80 | 1015.7 |
| 20260905170035 | 77 | 5 | 2.0 | 7.0 | 0.00 | 0.00 | 0.00 | 80 | 1015.6 |
| 20260905165519 | 77 | 47 | 1.0 | 7.0 | 0.00 | 0.01 | 0.00 | 80 | 1015.8 |
| 20260905165019 | 77 | 0 | 1.0 | 9.0 | 0.00 | 0.01 | 0.00 | 80 | 1015.8 |
| 20260905164535 | 77 | 68 | 1.0 | 9.0 | 0.00 | 0.01 | 0.00 | 81 | 1015.8 |
| 20260905164017 | 77 | 41 | 4.0 | 9.0 | 0.00 | 0.01 | 0.00 | 81 | 1015.8 |
| 20260905163516 | 77 | 348 | 4.0 | 9.0 | 0.00 | 0.01 | 0.00 | 81 | 1015.7 |
| 20260905163037 | 77 | 21 | 2.0 | 8.0 | 0.00 | 0.01 | 0.00 | 84 | 1015.6 |
| 20260905162520 | 76 | 66 | 1.0 | 8.0 | 0.00 | 0.01 | 0.00 | 84 | 1015.7 |
| 20260905162017 | 76 | 328 | 1.0 | 8.0 | 0.00 | 0.01 | 0.00 | 86 | 1015.7 |
| 20260905161537 | 76 | 340 | 2.0 | 9.0 | 0.00 | 0.01 | 0.00 | 84 | 1015.8 |
| 20260905161020 | 76 | 45 | 2.0 | 9.0 | 0.00 | 0.01 | 0.00 | 84 | 1015.8 |
| 20260905160519 | 75 | 5 | 3.0 | 9.0 | 0.00 | 0.01 | 0.00 | 84 | 1015.8 |
| 20260905160036 | 75 | 47 | 1.0 | 7.0 | 0.00 | 0.01 | 0.00 | 85 | 1015.8 |
| 20260905155517 | 75 | 46 | 1.0 | 7.0 | 0.00 | 0.14 | 0.00 | 86 | 1015.8 |
| 20260905155018 | 74 | 360 | 2.0 | 10.0 | 0.00 | 0.14 | 0.00 | 86 | 1015.8 |
| 20260905154537 | 74 | 22 | 2.0 | 10.0 | 0.00 | 0.14 | 0.00 | 86 | 1015.7 |
| 20260905154016 | 74 | 343 | 3.0 | 9.0 | 0.00 | 0.14 | 0.00 | 87 | 1015.7 |
| 20260905153521 | 74 | 55 | 2.0 | 6.0 | 0.00 | 0.14 | 0.00 | 87 | 1015.8 |
| 20260905153038 | 74 | 74 | 2.0 | 5.0 | 0.00 | 0.14 | 0.00 | 87 | 1015.6 |
| 20260905152521 | 74 | 348 | 2.0 | 7.0 | 0.00 | 0.14 | 0.00 | 87 | 1015.7 |
| 20260905152020 | 74 | 51 | 2.0 | 12.0 | 0.00 | 0.14 | 0.00 | 87 | 1015.7 |
| 20260905151542 | 74 | 88 | 3.0 | 12.0 | 0.00 | 0.14 | 0.00 | 86 | 1015.5 |
| 20260905151019 | 74 | 360 | 2.0 | 11.0 | 0.00 | 0.14 | 0.00 | 86 | 1015.4 |
| 20260905150520 | 74 | 0 | 2.0 | 11.0 | 0.00 | 0.14 | 0.00 | 86 | 1015.4 |
| 20260905150039 | 74 | 352 | 5.0 | 9.0 | 0.00 | 0.14 | 0.00 | 86 | 1015.4 |
| 20260905145517 | 74 | 22 | 5.0 | 9.0 | 0.00 | 0.21 | 0.00 | 86 | 1015.4 |
| 20260905145016 | 74 | 5 | 2.0 | 9.0 | 0.00 | 0.21 | 0.00 | 86 | 1015.3 |
| 20260905144540 | 74 | 352 | 2.0 | 9.0 | 0.00 | 0.21 | 0.00 | 86 | 1015.3 |
| 20260905144017 | 74 | 343 | 3.0 | 8.0 | 0.00 | 0.21 | 0.00 | 87 | 1015.2 |
| 20260905143516 | 74 | 15 | 2.0 | 8.0 | 0.00 | 0.21 | 0.00 | 89 | 1015.1 |
| 20260905143039 | 73 | 53 | 2.0 | 5.0 | 0.00 | 0.21 | 0.00 | 89 | 1015.0 |
| 20260905142521 | 73 | 27 | 1.0 | 8.0 | 0.00 | 0.21 | 0.00 | 90 | 1015.0 |
| 20260905142018 | 73 | 16 | 3.0 | 9.0 | 0.00 | 0.21 | 0.00 | 91 | 1015.0 |
| 20260905141543 | 72 | 0 | 1.0 | 9.0 | 0.00 | 0.21 | 0.00 | 92 | 1015.0 |
| 20260905141020 | 72 | 350 | 1.0 | 8.0 | 0.00 | 0.21 | 0.00 | 92 | 1015.1 |
| 20260905140516 | 72 | 355 | 2.0 | 10.0 | 0.00 | 0.21 | 0.00 | 92 | 1015.0 |
| 20260905140038 | 72 | 34 | 3.0 | 10.0 | 0.00 | 0.21 | 0.00 | 92 | 1015.1 |
| 20260905135516 | 72 | 0 | 3.0 | 10.0 | 0.00 | 0.34 | 0.00 | 92 | 1014.9 |
| 20260905135018 | 71 | 58 | 2.0 | 9.0 | 0.00 | 0.34 | 0.00 | 92 | 1014.9 |
| 20260905134535 | 71 | 360 | 2.0 | 6.0 | 0.00 | 0.34 | 0.00 | 93 | 1015.1 |
| 20260905134016 | 71 | 33 | 2.0 | 6.0 | 0.00 | 0.34 | 0.00 | 93 | 1015.0 |
| 20260905133521 | 72 | 38 | 3.0 | 6.0 | 0.00 | 0.34 | 0.00 | 93 | 1015.1 |
| 20260905133037 | 71 | 349 | 2.0 | 6.0 | 0.00 | 0.34 | 0.00 | 93 | 1015.1 |
| 20260905132517 | 71 | 45 | 1.0 | 10.0 | 0.00 | 0.34 | 0.00 | 93 | 1015.1 |
| 20260905132017 | 71 | 0 | 1.0 | 10.0 | 0.00 | 0.34 | 0.00 | 94 | 1015.3 |
| 20260905131553 | 71 | 17 | 1.0 | 8.0 | 0.00 | 0.34 | 0.00 | 94 | 1015.3 |
| 20260905131018 | 71 | 0 | 1.0 | 9.0 | 0.00 | 0.34 | 0.00 | 94 | 1015.1 |
| 20260905130519 | 71 | 11 | 3.0 | 9.0 | 0.00 | 0.34 | 0.00 | 94 | 1015.0 |
| 20260905130036 | 71 | 13 | 2.0 | 8.0 | 0.00 | 0.34 | 0.00 | 94 | 1014.9 |
| 20260905125518 | 71 | 10 | 2.0 | 8.0 | 0.00 | 0.34 | 0.00 | 95 | 1014.8 |
| 20260905125018 | 71 | 5 | 2.0 | 6.0 | 0.00 | 0.34 | 0.00 | 95 | 1014.8 |
| 20260905124544 | 71 | 42 | 2.0 | 5.0 | 0.00 | 0.34 | 0.00 | 95 | 1014.7 |
| 20260905124018 | 70 | 360 | 1.0 | 6.0 | 0.00 | 0.34 | 0.00 | 95 | 1014.7 |
| 20260905123519 | 70 | 317 | 1.0 | 6.0 | 0.00 | 0.34 | 0.00 | 95 | 1014.7 |
| 20260905123047 | 70 | 5 | 2.0 | 8.0 | 0.00 | 0.34 | 0.00 | 95 | 1014.5 |
| 20260905122520 | 70 | 360 | 0.0 | 8.0 | 0.00 | 0.34 | 0.00 | 95 | 1014.4 |
| 20260905122020 | 70 | 62 | 1.0 | 9.0 | 0.00 | 0.34 | 0.00 | 95 | 1014.3 |
| 20260905121536 | 70 | 65 | 3.0 | 9.0 | 0.00 | 0.34 | 0.00 | 95 | 1014.3 |
| 20260905121017 | 70 | 349 | 2.0 | 6.0 | 0.00 | 0.34 | 0.00 | 95 | 1014.2 |
| 20260905120522 | 70 | 47 | 1.0 | 8.0 | 0.00 | 0.34 | 0.00 | 95 | 1014.1 |
| 20260905120037 | 70 | 38 | 2.0 | 8.0 | 0.00 | 0.34 | 0.00 | 95 | 1014.1 |
| 20260905115518 | 70 | 352 | 2.0 | 8.0 | 0.00 | 0.34 | 0.00 | 95 | 1014.1 |
| 20260905115020 | 70 | 38 | 2.0 | 6.0 | 0.00 | 0.34 | 0.00 | 95 | 1014.1 |
| 20260905114542 | 70 | 15 | 2.0 | 9.0 | 0.00 | 0.34 | 0.00 | 95 | 1014.1 |
| 20260905114018 | 70 | 26 | 3.0 | 9.0 | 0.00 | 0.34 | 0.00 | 95 | 1014.0 |
| 20260905113518 | 70 | 46 | 2.0 | 8.0 | 0.00 | 0.34 | 0.00 | 95 | 1014.0 |
| 20260905113039 | 70 | 49 | 1.0 | 8.0 | 0.00 | 0.34 | 0.00 | 95 | 1013.9 |
| 20260905112516 | 70 | 0 | 2.0 | 8.0 | 0.00 | 0.34 | 0.00 | 95 | 1013.8 |
| 20260905112019 | 69 | 67 | 2.0 | 7.0 | 0.00 | 0.34 | 0.00 | 95 | 1013.8 |
| 20260905111547 | 70 | 53 | 2.0 | 8.0 | 0.00 | 0.34 | 0.00 | 95 | 1013.8 |
| 20260905111023 | 70 | 39 | 2.0 | 8.0 | 0.00 | 0.34 | 0.00 | 95 | 1013.8 |
| 20260905110520 | 70 | 360 | 3.0 | 8.0 | 0.00 | 0.34 | 0.00 | 95 | 1013.6 |
| 20260905110037 | 70 | 42 | 2.0 | 6.0 | 0.00 | 0.34 | 0.00 | 95 | 1013.7 |
| 20260905105517 | 70 | 22 | 2.0 | 10.0 | 0.00 | 0.34 | 0.00 | 95 | 1013.6 |
| 20260905105019 | 70 | 352 | 1.0 | 10.0 | 0.00 | 0.34 | 0.00 | 95 | 1013.6 |
| 20260905104537 | 70 | 24 | 2.0 | 6.0 | 0.00 | 0.34 | 0.00 | 95 | 1013.6 |
| 20260905104018 | 70 | 15 | 1.0 | 5.0 | 0.00 | 0.34 | 0.00 | 95 | 1013.5 |
| 20260905103520 | 70 | 26 | 1.0 | 5.0 | 0.00 | 0.34 | 0.00 | 95 | 1013.6 |
| 20260905103034 | 70 | 337 | 2.0 | 5.0 | 0.00 | 0.34 | 0.00 | 95 | 1013.5 |
| 20260905102515 | 70 | 40 | 1.0 | 4.0 | 0.00 | 0.34 | 0.00 | 95 | 1013.5 |
| 20260905102017 | 70 | 53 | 1.0 | 4.0 | 0.00 | 0.34 | 0.00 | 95 | 1013.5 |
| 20260905101539 | 70 | 0 | 0.0 | 2.0 | 0.00 | 0.34 | 0.00 | 95 | 1013.4 |
| 20260905101020 | 70 | 0 | 0.0 | 4.0 | 0.00 | 0.34 | 0.00 | 95 | 1013.2 |
| 20260905100517 | 70 | 0 | 0.0 | 4.0 | 0.00 | 0.34 | 0.00 | 95 | 1013.3 |
| 20260905100038 | 70 | 19 | 0.0 | 4.0 | 0.00 | 0.34 | 0.00 | 95 | 1013.3 |
| 20260905095516 | 70 | 36 | 1.0 | 8.0 | 0.00 | 0.34 | 0.00 | 95 | 1013.3 |
| 20260905095018 | 70 | 327 | 1.0 | 8.0 | 0.00 | 0.34 | 0.00 | 95 | 1013.2 |
| 20260905094533 | 70 | 15 | 1.0 | 4.0 | 0.00 | 0.34 | 0.00 | 95 | 1013.2 |
| 20260905094020 | 70 | 31 | 1.0 | 4.0 | 0.00 | 0.34 | 0.00 | 95 | 1013.1 |
| 20260905093516 | 70 | 40 | 0.0 | 4.0 | 0.00 | 0.34 | 0.00 | 95 | 1013.2 |
| 20260905093034 | 70 | 0 | 0.0 | 3.0 | 0.00 | 0.34 | 0.00 | 95 | 1013.2 |
| 20260905092519 | 69 | 0 | 0.0 | 3.0 | 0.00 | 0.34 | 0.00 | 95 | 1013.1 |
| 20260905092025 | 69 | 0 | 0.0 | 2.0 | 0.00 | 0.34 | 0.00 | 94 | 1013.0 |
| 20260905091537 | 69 | 0 | 0.0 | 2.0 | 0.00 | 0.34 | 0.00 | 94 | 1013.0 |
| 20260905091021 | 70 | 0 | 0.0 | 0.0 | 0.00 | 0.34 | 0.00 | 94 | 1013.0 |
| 20260905090519 | 70 | 0 | 0.0 | 3.0 | 0.00 | 0.34 | 0.00 | 94 | 1013.1 |
| 20260905090040 | 70 | 0 | 0.0 | 5.0 | 0.00 | 0.34 | 0.00 | 95 | 1013.1 |
| 20260905085517 | 70 | 5 | 2.0 | 5.0 | 0.00 | 0.36 | 0.00 | 95 | 1013.2 |
| 20260905085019 | 70 | 333 | 1.0 | 8.0 | 0.00 | 0.36 | 0.00 | 95 | 1013.2 |
| 20260905084557 | 70 | 0 | 1.0 | 8.0 | 0.00 | 0.36 | 0.00 | 95 | 1013.2 |
| 20260905084018 | 70 | 17 | 2.0 | 6.0 | 0.00 | 0.36 | 0.00 | 95 | 1013.1 |
| 20260905083516 | 70 | 326 | 3.0 | 6.0 | 0.00 | 0.36 | 0.00 | 95 | 1013.2 |
| 20260905083035 | 70 | 330 | 3.0 | 6.0 | 0.00 | 0.36 | 0.00 | 95 | 1013.1 |
| 20260905082520 | 70 | 5 | 3.0 | 6.0 | 0.00 | 0.36 | 0.00 | 94 | 1013.1 |
| 20260905082019 | 70 | 9 | 2.0 | 6.0 | 0.00 | 0.36 | 0.00 | 94 | 1013.0 |
| 20260905081538 | 70 | 5 | 0.0 | 7.0 | 0.00 | 0.36 | 0.00 | 94 | 1013.0 |
| 20260905081020 | 70 | 352 | 1.0 | 7.0 | 0.00 | 0.36 | 0.00 | 94 | 1013.0 |
| 20260905080518 | 70 | 346 | 3.0 | 7.0 | 0.00 | 0.36 | 0.00 | 94 | 1013.0 |
| 20260905080036 | 70 | 351 | 3.0 | 7.0 | 0.00 | 0.36 | 0.00 | 94 | 1013.0 |
| 20260905075520 | 70 | 309 | 3.0 | 7.0 | 0.00 | 0.36 | 0.00 | 94 | 1012.9 |
| 20260905075019 | 70 | 19 | 3.0 | 5.0 | 0.00 | 0.36 | 0.00 | 94 | 1013.1 |
| 20260905074536 | 70 | 351 | 0.0 | 3.0 | 0.00 | 0.36 | 0.00 | 94 | 1013.2 |
| 20260905074019 | 70 | 355 | 1.0 | 3.0 | 0.00 | 0.36 | 0.00 | 94 | 1013.2 |
| 20260905073521 | 70 | 311 | 0.0 | 2.0 | 0.00 | 0.36 | 0.00 | 94 | 1013.0 |
| 20260905073036 | 70 | 0 | 0.0 | 2.0 | 0.00 | 0.36 | 0.00 | 94 | 1013.0 |
| 20260905072517 | 70 | 253 | 0.0 | 5.0 | 0.00 | 0.36 | 0.00 | 94 | 1013.0 |
| 20260905072016 | 70 | 0 | 1.0 | 6.0 | 0.00 | 0.36 | 0.00 | 94 | 1012.9 |
| 20260905071537 | 70 | 5 | 1.0 | 6.0 | 0.00 | 0.36 | 0.00 | 94 | 1012.9 |
| 20260905071017 | 70 | 360 | 3.0 | 6.0 | 0.00 | 0.36 | 0.00 | 94 | 1012.9 |
| 20260905070516 | 70 | 5 | 4.0 | 6.0 | 0.00 | 0.36 | 0.00 | 94 | 1012.9 |
| 20260905070037 | 70 | 349 | 0.0 | 2.0 | 0.00 | 0.36 | 0.00 | 93 | 1013.0 |
| 20260905065516 | 70 | 209 | 1.0 | 2.0 | 0.00 | 0.36 | 0.00 | 93 | 1012.8 |
| 20260905065018 | 70 | 0 | 0.0 | 3.0 | 0.00 | 0.36 | 0.00 | 93 | 1013.0 |
| 20260905064535 | 70 | 0 | 0.0 | 3.0 | 0.00 | 0.36 | 0.00 | 93 | 1013.1 |
| 20260905064018 | 71 | 360 | 0.0 | 5.0 | 0.00 | 0.36 | 0.00 | 93 | 1013.0 |
| 20260905063522 | 71 | 0 | 0.0 | 5.0 | 0.00 | 0.36 | 0.00 | 94 | 1013.0 |
| 20260905063038 | 70 | 344 | 1.0 | 4.0 | 0.00 | 0.36 | 0.00 | 93 | 1013.1 |
| 20260905062519 | 71 | 0 | 0.0 | 3.0 | 0.00 | 0.36 | 0.00 | 93 | 1013.1 |
| 20260905062018 | 71 | 0 | 0.0 | 3.0 | 0.00 | 0.36 | 0.00 | 93 | 1013.1 |
| 20260905061538 | 71 | 0 | 1.0 | 3.0 | 0.00 | 0.36 | 0.00 | 93 | 1013.1 |
| 20260905061017 | 71 | 355 | 0.0 | 4.0 | 0.00 | 0.36 | 0.00 | 93 | 1013.1 |
| 20260905060518 | 71 | 355 | 1.0 | 6.0 | 0.00 | 0.36 | 0.00 | 93 | 1013.2 |
| 20260905060035 | 71 | 0 | 0.0 | 8.0 | 0.00 | 0.36 | 0.00 | 93 | 1013.2 |
| 20260905055515 | 71 | 355 | 3.0 | 11.0 | 0.00 | 0.36 | 0.00 | 93 | 1013.2 |
| 20260905055021 | 71 | 348 | 5.0 | 11.0 | 0.00 | 0.36 | 0.00 | 94 | 1013.2 |
| 20260905054535 | 71 | 5 | 2.0 | 4.0 | 0.00 | 0.36 | 0.00 | 93 | 1013.3 |
| 20260905054017 | 71 | 221 | 0.0 | 5.0 | 0.00 | 0.36 | 0.00 | 93 | 1013.2 |
| 20260905053521 | 71 | 5 | 2.0 | 5.0 | 0.00 | 0.36 | 0.00 | 93 | 1013.2 |
| 20260905053035 | 71 | 310 | 0.0 | 4.0 | 0.00 | 0.36 | 0.00 | 93 | 1012.9 |
| 20260905052520 | 71 | 0 | 0.0 | 3.0 | 0.00 | 0.36 | 0.00 | 93 | 1012.7 |
| 20260905052018 | 71 | 165 | 1.0 | 3.0 | 0.00 | 0.36 | 0.00 | 93 | 1012.8 |
| 20260905051539 | 71 | 163 | 0.0 | 3.0 | 0.00 | 0.36 | 0.00 | 93 | 1013.0 |
| 20260905051018 | 71 | 0 | 0.0 | 0.0 | 0.00 | 0.36 | 0.00 | 93 | 1013.1 |
| 20260905050516 | 71 | 0 | 0.0 | 0.0 | 0.00 | 0.36 | 0.00 | 93 | 1013.1 |
| 20260905050035 | 71 | 0 | 0.0 | 0.0 | 0.00 | 0.36 | 0.00 | 92 | 1013.2 |
| 20260905045518 | 71 | 0 | 0.0 | 2.0 | 0.00 | 0.36 | 0.36 | 92 | 1013.1 |
| 20260905045017 | 71 | 0 | 0.0 | 2.0 | 0.00 | 0.36 | 0.36 | 93 | 1013.1 |
| 20260905044537 | 72 | 139 | 1.0 | 2.0 | 0.00 | 0.36 | 0.36 | 93 | 1013.2 |